Time,TemperatureF,DewpointF,PressureIn,WindDirection,WindDirectionDegrees,WindSpeedMPH,WindSpeedGustMPH,Humidity,HourlyPrecipIn,Conditions,Clouds,dailyrainin,SoftwareType,DateUTC
2013-09-09 00:02:00,53.0,45.0,30.04,NW,325,0.0,1.0,75,0.00,,,0.00,weatherlink.com 1.10,2013-09-09 04:02:00,
2013-09-09 00:17:00,51.8,45.0,30.05,NW,325,0.0,1.0,78,0.00,,,0.00,weatherlink.com 1.10,2013-09-09 04:17:00,
2013-09-09 00:32:00,50.5,44.0,30.05,NW,325,0.0,0.0,78,0.00,,,0.00,weatherlink.com 1.10,2013-09-09 04:32:00,
2013-09-09 00:47:00,49.8,45.0,30.06,NW,325,0.0,0.0,82,0.00,,,0.00,weatherlink.com 1.10,2013-09-09 04:47:00,
2013-09-09 01:02:00,48.6,45.0,30.06,NW,325,0.0,2.0,86,0.00,,,0.00,weatherlink.com 1.10,2013-09-09 05:02:00,
2013-09-09 01:17:00,47.3,44.0,30.07,NW,325,2.0,2.0,88,0.00,,,0.00,weatherlink.com 1.10,2013-09-09 05:17:00,
2013-09-09 01:32:00,47.0,44.0,30.07,NW,325,0.0,1.0,90,0.00,,,0.00,weatherlink.com 1.10,2013-09-09 05:32:00,
2013-09-09 01:47:00,47.2,45.0,30.07,NW,325,0.0,1.0,91,0.00,,,0.00,weatherlink.com 1.10,2013-09-09 05:47:00,
2013-09-09 02:02:00,47.0,44.0,30.07,NW,325,0.0,0.0,90,0.00,,,0.00,weatherlink.com 1.10,2013-09-09 06:02:00,
2013-09-09 02:17:00,46.8,44.0,30.07,NW,325,0.0,1.0,91,0.00,,,0.00,weatherlink.com 1.10,2013-09-09 06:17:00,
2013-09-09 02:32:00,46.7,45.0,30.07,NW,325,0.0,0.0,92,0.00,,,0.00,weatherlink.com 1.10,2013-09-09 06:32:00,
2013-09-09 02:47:00,45.9,44.0,30.08,NW,325,0.0,1.0,92,0.00,,,0.00,weatherlink.com 1.10,2013-09-09 06:47:00,
2013-09-09 03:02:00,45.4,43.0,30.07,NW,325,0.0,0.0,92,0.00,,,0.00,weatherlink.com 1.10,2013-09-09 07:02:00,
2013-09-09 03:17:00,44.7,43.0,30.08,NW,325,0.0,0.0,93,0.00,,,0.00,weatherlink.com 1.10,2013-09-09 07:17:00,
2013-09-09 03:32:00,44.6,43.0,30.09,NW,325,0.0,1.0,93,0.00,,,0.00,weatherlink.com 1.10,2013-09-09 07:32:00,
2013-09-09 03:47:00,44.1,42.0,30.09,NW,325,0.0,1.0,93,0.00,,,0.00,weatherlink.com 1.10,2013-09-09 07:47:00,
2013-09-09 04:02:00,43.8,42.0,30.09,NW,325,0.0,2.0,93,0.00,,,0.00,weatherlink.com 1.10,2013-09-09 08:02:00,
2013-09-09 04:17:00,44.2,43.0,30.10,NW,325,0.0,0.0,94,0.00,,,0.00,weatherlink.com 1.10,2013-09-09 08:17:00,
2013-09-09 04:32:00,44.1,43.0,30.10,NW,325,0.0,1.0,94,0.00,,,0.00,weatherlink.com 1.10,2013-09-09 08:32:00,
2013-09-09 04:47:00,43.5,42.0,30.11,NW,325,0.0,1.0,93,0.00,,,0.00,weatherlink.com 1.10,2013-09-09 08:47:00,
2013-09-09 05:02:00,43.0,41.0,30.12,NW,325,0.0,2.0,93,0.00,,,0.00,weatherlink.com 1.10,2013-09-09 09:02:00,
2013-09-09 05:17:00,42.9,41.0,30.12,NW,325,0.0,1.0,94,0.00,,,0.00,weatherlink.com 1.10,2013-09-09 09:17:00,
2013-09-09 05:33:00,42.8,41.0,30.13,NW,325,1.0,2.0,94,0.00,,,0.00,weatherlink.com 1.10,2013-09-09 09:33:00,
2013-09-09 05:48:00,42.6,41.0,30.14,NW,325,0.0,1.0,94,0.00,,,0.00,weatherlink.com 1.10,2013-09-09 09:48:00,
2013-09-09 06:03:00,42.2,41.0,30.15,NW,325,0.0,0.0,94,0.00,,,0.00,weatherlink.com 1.10,2013-09-09 10:03:00,
2013-09-09 06:18:00,42.2,41.0,30.16,NW,325,0.0,0.0,94,0.00,,,0.00,weatherlink.com 1.10,2013-09-09 10:18:00,
2013-09-09 06:33:00,42.3,41.0,30.16,NW,325,0.0,1.0,94,0.00,,,0.00,weatherlink.com 1.10,2013-09-09 10:33:00,
2013-09-09 06:48:00,42.1,41.0,30.17,NW,325,0.0,0.0,95,0.00,,,0.00,weatherlink.com 1.10,2013-09-09 10:48:00,
2013-09-09 07:03:00,42.6,41.0,30.18,NW,325,0.0,1.0,95,0.00,,,0.00,weatherlink.com 1.10,2013-09-09 11:03:00,
2013-09-09 07:18:00,43.6,42.0,30.18,NW,325,1.0,2.0,95,0.00,,,0.00,weatherlink.com 1.10,2013-09-09 11:18:00,
2013-09-09 07:33:00,44.7,43.0,30.18,NW,325,0.0,1.0,94,0.00,,,0.00,weatherlink.com 1.10,2013-09-09 11:33:00,
2013-09-09 07:48:00,46.0,44.0,30.18,NW,325,0.0,2.0,93,0.00,,,0.00,weatherlink.com 1.10,2013-09-09 11:48:00,
2013-09-09 08:03:00,47.6,45.0,30.19,NW,325,0.0,2.0,91,0.00,,,0.00,weatherlink.com 1.10,2013-09-09 12:03:00,
2013-09-09 08:18:00,49.2,46.0,30.19,NW,325,0.0,3.0,88,0.00,,,0.00,weatherlink.com 1.10,2013-09-09 12:18:00,
2013-09-09 08:33:00,50.8,47.0,30.19,NW,325,0.0,1.0,85,0.00,,,0.00,weatherlink.com 1.10,2013-09-09 12:33:00,
2013-09-09 08:48:00,53.5,48.0,30.19,NW,325,0.0,2.0,81,0.00,,,0.00,weatherlink.com 1.10,2013-09-09 12:48:00,
2013-09-09 09:03:00,55.7,47.0,30.19,North,5,1.0,4.0,73,0.00,,,0.00,weatherlink.com 1.10,2013-09-09 13:03:00,
2013-09-09 09:18:00,57.1,48.0,30.20,North,5,0.0,3.0,71,0.00,,,0.00,weatherlink.com 1.10,2013-09-09 13:18:00,
2013-09-09 09:33:00,58.9,49.0,30.20,North,10,0.0,2.0,71,0.00,,,0.00,weatherlink.com 1.10,2013-09-09 13:33:00,
2013-09-09 09:48:00,61.1,50.0,30.20,North,10,0.0,3.0,67,0.00,,,0.00,weatherlink.com 1.10,2013-09-09 13:48:00,
2013-09-09 10:03:00,62.9,49.0,30.20,North,10,0.0,1.0,61,0.00,,,0.00,weatherlink.com 1.10,2013-09-09 14:03:00,
2013-09-09 10:18:00,63.7,48.0,30.19,North,10,1.0,3.0,58,0.00,,,0.00,weatherlink.com 1.10,2013-09-09 14:18:00,
2013-09-09 10:33:00,64.0,48.0,30.19,North,10,1.0,2.0,57,0.00,,,0.00,weatherlink.com 1.10,2013-09-09 14:33:00,
2013-09-09 10:48:00,65.3,49.0,30.19,North,355,0.0,1.0,56,0.00,,,0.00,weatherlink.com 1.10,2013-09-09 14:48:00,
2013-09-09 11:03:00,65.7,50.0,30.19,SW,224,0.0,3.0,57,0.00,,,0.00,weatherlink.com 1.10,2013-09-09 15:03:00,
2013-09-09 11:18:00,65.3,50.0,30.19,SSW,210,0.0,3.0,59,0.00,,,0.00,weatherlink.com 1.10,2013-09-09 15:18:00,
2013-09-09 11:33:00,65.1,51.0,30.19,SW,229,1.0,5.0,60,0.00,,,0.00,weatherlink.com 1.10,2013-09-09 15:33:00,
2013-09-09 11:48:00,65.3,49.0,30.19,SSW,198,0.0,7.0,57,0.00,,,0.00,weatherlink.com 1.10,2013-09-09 15:48:00,
2013-09-09 12:03:00,65.6,50.0,30.19,SSW,195,0.0,3.0,58,0.00,,,0.00,weatherlink.com 1.10,2013-09-09 16:03:00,
2013-09-09 12:18:00,65.1,52.0,30.18,SW,218,1.0,3.0,62,0.00,,,0.00,weatherlink.com 1.10,2013-09-09 16:18:00,
2013-09-09 12:33:00,65.3,50.0,30.18,SSW,196,4.0,4.0,59,0.00,,,0.00,weatherlink.com 1.10,2013-09-09 16:33:00,
2013-09-09 12:48:00,65.7,50.0,30.18,SSW,208,1.0,4.0,58,0.00,,,0.00,weatherlink.com 1.10,2013-09-09 16:48:00,
2013-09-09 13:03:00,65.6,49.0,30.18,SW,228,0.0,5.0,55,0.00,,,0.00,weatherlink.com 1.10,2013-09-09 17:03:00,
2013-09-09 13:18:00,65.3,49.0,30.18,ESE,112,0.0,4.0,56,0.00,,,0.00,weatherlink.com 1.10,2013-09-09 17:18:00,
2013-09-09 13:33:00,65.5,50.0,30.17,ESE,121,3.0,5.0,58,0.00,,,0.00,weatherlink.com 1.10,2013-09-09 17:33:00,
2013-09-09 13:48:00,65.6,49.0,30.17,SW,231,2.0,7.0,55,0.00,,,0.00,weatherlink.com 1.10,2013-09-09 17:48:00,
2013-09-09 14:03:00,66.1,47.0,30.17,SE,146,1.0,6.0,51,0.00,,,0.00,weatherlink.com 1.10,2013-09-09 18:03:00,
2013-09-09 14:18:00,65.8,48.0,30.16,SW,216,0.0,4.0,52,0.00,,,0.00,weatherlink.com 1.10,2013-09-09 18:18:00,
2013-09-09 14:34:00,65.6,46.0,30.16,WSW,248,0.0,3.0,50,0.00,,,0.00,weatherlink.com 1.10,2013-09-09 18:34:00,
2013-09-09 14:49:00,64.9,50.0,30.16,South,169,0.0,5.0,58,0.00,,,0.00,weatherlink.com 1.10,2013-09-09 18:49:00,
2013-09-09 15:04:00,64.5,52.0,30.16,ESE,121,1.0,6.0,64,0.00,,,0.00,weatherlink.com 1.10,2013-09-09 19:04:00,
2013-09-09 15:19:00,65.0,52.0,30.16,SSW,202,2.0,8.0,63,0.00,,,0.00,weatherlink.com 1.10,2013-09-09 19:19:00,
2013-09-09 15:34:00,65.4,53.0,30.16,South,175,0.0,6.0,64,0.00,,,0.00,weatherlink.com 1.10,2013-09-09 19:34:00,
2013-09-09 15:49:00,64.8,52.0,30.16,SW,230,0.0,7.0,63,0.00,,,0.00,weatherlink.com 1.10,2013-09-09 19:49:00,
2013-09-09 16:04:00,65.3,53.0,30.16,WSW,239,2.0,4.0,64,0.00,,,0.00,weatherlink.com 1.10,2013-09-09 20:04:00,
2013-09-09 16:19:00,64.6,51.0,30.16,SW,222,2.0,6.0,61,0.00,,,0.00,weatherlink.com 1.10,2013-09-09 20:19:00,
2013-09-09 16:34:00,63.8,52.0,30.16,WSW,246,0.0,4.0,65,0.00,,,0.00,weatherlink.com 1.10,2013-09-09 20:34:00,
2013-09-09 16:49:00,64.4,52.0,30.16,WSW,246,2.0,3.0,65,0.00,,,0.00,weatherlink.com 1.10,2013-09-09 20:49:00,
2013-09-09 17:04:00,65.2,53.0,30.16,SSW,209,0.0,3.0,65,0.00,,,0.00,weatherlink.com 1.10,2013-09-09 21:04:00,
2013-09-09 17:19:00,65.0,53.0,30.15,West,263,4.0,5.0,66,0.00,,,0.00,weatherlink.com 1.10,2013-09-09 21:19:00,
2013-09-09 17:34:00,63.7,54.0,30.15,SSW,194,1.0,6.0,70,0.00,,,0.00,weatherlink.com 1.10,2013-09-09 21:34:00,
2013-09-09 17:49:00,64.0,55.0,30.15,SSW,197,5.0,5.0,72,0.00,,,0.00,weatherlink.com 1.10,2013-09-09 21:49:00,
2013-09-09 18:04:00,63.5,55.0,30.14,SSW,210,1.0,5.0,73,0.00,,,0.00,weatherlink.com 1.10,2013-09-09 22:04:00,
2013-09-09 18:19:00,62.9,55.0,30.14,SSW,210,0.0,1.0,75,0.00,,,0.00,weatherlink.com 1.10,2013-09-09 22:19:00,
2013-09-09 18:34:00,61.9,55.0,30.14,SSW,210,0.0,1.0,78,0.00,,,0.00,weatherlink.com 1.10,2013-09-09 22:34:00,
2013-09-09 18:49:00,60.8,54.0,30.14,SSW,210,0.0,0.0,79,0.00,,,0.00,weatherlink.com 1.10,2013-09-09 22:49:00,
2013-09-09 19:04:00,59.6,54.0,30.14,SSW,210,0.0,0.0,81,0.00,,,0.00,weatherlink.com 1.10,2013-09-09 23:04:00,
2013-09-09 19:19:00,58.4,54.0,30.14,SSW,210,0.0,0.0,85,0.00,,,0.00,weatherlink.com 1.10,2013-09-09 23:19:00,
2013-09-09 19:34:00,57.3,53.0,30.14,SSW,210,0.0,1.0,86,0.00,,,0.00,weatherlink.com 1.10,2013-09-09 23:34:00,
2013-09-09 19:49:00,56.2,52.0,30.14,SSW,210,0.0,0.0,86,0.00,,,0.00,weatherlink.com 1.10,2013-09-09 23:49:00,
2013-09-09 20:04:00,55.2,52.0,30.14,SSW,210,0.0,0.0,88,0.00,,,0.00,weatherlink.com 1.10,2013-09-10 00:04:00,
2013-09-09 20:19:00,54.5,51.0,30.13,SSW,210,0.0,0.0,89,0.00,,,0.00,weatherlink.com 1.10,2013-09-10 00:19:00,
2013-09-09 20:34:00,53.8,51.0,30.14,SSW,210,0.0,0.0,89,0.00,,,0.00,weatherlink.com 1.10,2013-09-10 00:34:00,
2013-09-09 20:49:00,53.3,51.0,30.14,SSW,210,0.0,0.0,90,0.00,,,0.00,weatherlink.com 1.10,2013-09-10 00:49:00,
2013-09-09 21:04:00,53.2,50.0,30.14,SSW,210,0.0,0.0,90,0.00,,,0.00,weatherlink.com 1.10,2013-09-10 01:04:00,
2013-09-09 21:19:00,53.3,51.0,30.14,SSW,210,0.0,0.0,91,0.00,,,0.00,weatherlink.com 1.10,2013-09-10 01:19:00,
2013-09-09 21:34:00,53.6,51.0,30.14,SSW,210,0.0,0.0,91,0.00,,,0.00,weatherlink.com 1.10,2013-09-10 01:34:00,
2013-09-09 21:49:00,53.7,51.0,30.14,SSW,210,0.0,0.0,91,0.00,,,0.00,weatherlink.com 1.10,2013-09-10 01:49:00,
2013-09-09 22:04:00,53.8,51.0,30.14,SSW,210,0.0,0.0,91,0.00,,,0.00,weatherlink.com 1.10,2013-09-10 02:04:00,
2013-09-09 22:19:00,53.9,51.0,30.14,SSW,210,0.0,0.0,91,0.00,,,0.00,weatherlink.com 1.10,2013-09-10 02:19:00,
2013-09-09 22:34:00,54.1,52.0,30.14,SSW,210,0.0,0.0,93,0.00,,,0.00,weatherlink.com 1.10,2013-09-10 02:34:00,
2013-09-09 22:49:00,53.7,52.0,30.14,SSW,210,0.0,1.0,92,0.00,,,0.00,weatherlink.com 1.10,2013-09-10 02:49:00,
2013-09-09 23:04:00,53.2,51.0,30.14,SSW,210,0.0,0.0,92,0.00,,,0.00,weatherlink.com 1.10,2013-09-10 03:04:00,
2013-09-09 23:19:00,53.3,51.0,30.14,SSW,210,0.0,0.0,93,0.00,,,0.00,weatherlink.com 1.10,2013-09-10 03:19:00,
2013-09-09 23:34:00,53.6,52.0,30.14,SSW,210,0.0,0.0,93,0.00,,,0.00,weatherlink.com 1.10,2013-09-10 03:34:00,
2013-09-09 23:49:00,53.4,52.0,30.14,SSW,210,0.0,0.0,93,0.00,,,0.00,weatherlink.com 1.10,2013-09-10 03:49:00,